Hourly Weather Roundup
Issued by NWS Central Illinois

Home | Current Version | Previous Version | Text Only | Print | Product List | Glossary On
Versions: 1 2 3 4 5 6 7 8 9 10 11 12 13 14 15 16 17 18 19 20 21 22 23 24 25 26 27 28 29 30 31 32 33 34 35 36 37 38 39 40 41 42 43 44 45 46 47 48 49 50
000
NZUS43 KILX 310310
HWRILX

AREA WEATHER ROUNDUP
NATIONAL WEATHER SERVICE, LINCOLN IL
1000 PM CDT THU JUL 30 2015


CITY           SKY/WX    TMP DP  RH WIND       PRES   REMARKS
BLOOMINGTON    CLEAR     77  65  66 W8        30.09R
CHAMPAIGN      CLEAR     71  66  84 W3        30.08R
DANVILLE       CLEAR     66  65  96 SW3       30.05R
DECATUR        CLEAR     78  65  63 W6        30.09R HX  80
EFFINGHAM      CLEAR     72  63  72 CALM      30.11R
FLORA          PTCLDY    74  65  73 W5        30.10S
GALESBURG      CLEAR     73  66  78 W6        30.09R
JACKSONVILLE   CLEAR     74  68  82 SW6       30.10R
LACON          CLEAR     76  66  72 W3        30.05R
LAWRENCEVILLE  PTCLDY    74  67  78 W6        30.09R
LITCHFIELD     CLEAR     71  66  86 SW5       30.11R
$$


CITY           SKY/WX    TMP DP  RH WIND       PRES   REMARKS
LINCOLN        CLEAR     79  65  62 W3        30.07R HX  81
MACOMB         CLEAR     70  67  92 W6        30.11R
MATTOON        CLEAR     74  63  68 W6        30.08R
MT CARMEL AP   PTCLDY    73  68  83 W3        30.09R
OLNEY-NOBLE AP PTCLDY    72  64  78 W6        30.10R
PARIS          CLEAR     67  66  94 CALM      30.08R
PEORIA         CLEAR     76  65  68 W3        30.07R
PONTIAC        CLEAR     72  68  88 W6        30.06R
RANTOUL        CLEAR     74  68  81 W5        30.07R
ROBINSON       PTCLDY    70  66  88 CALM      30.09R
SPRINGFIELD    CLEAR     73  67  81 W6        30.09R
TAYLORVILLE    CLEAR     70  66  88 SW5       30.10R
$$

...REGIONAL REPORTS...


CITY           SKY/WX    TMP DP  RH WIND       PRES   REMARKS
CHICAGO O`HARE CLEAR     78  60  53 W10       30.01R
KANKAKEE       CLEAR     72  66  81 SW6       30.04S
MOLINE         CLEAR     73  66  78 SW5       30.06R
MOUNT STERLING NOT AVBL
MOUNT VERNON   PTCLDY    70  63  78 CALM      30.12R
PITTSFIELD     CLEAR     76  67  71 W5        30.12R
QUINCY         CLEAR     74  66  76 SW6       30.11R
ROCKFORD       CLEAR     72  59  63 W5        30.05R
$$


CITY           SKY/WX    TMP DP  RH WIND       PRES   REMARKS
BURLINGTON     CLEAR     74  65  73 W5        30.09R
CEDAR RAPIDS   CLEAR     70  68  93 W3        30.08R
DES MOINES     CLEAR     76  65  68 SW7       30.10R
KIRKSVILLE     CLEAR     70  66  87 W5        30.14R
OTTUMWA        CLEAR     69  65  86 W7        30.09R
ST LOUIS       NOT AVBL
$$


CITY           SKY/WX    TMP DP  RH WIND       PRES   REMARKS
TERRE HAUTE    CLEAR     68  63  84 CALM      30.07R
EVANSVILLE     CLEAR     76  65  68 W6        30.09R
INDIANAPOLIS   PTCLDY    74  61  63 W5        30.06R
LAFAYETTE      CLEAR     69  64  84 CALM      30.05R
MADISON        CLEAR     74  55  51 W3        30.01R
MILWAUKEE      CLEAR     79  53  40 W8        29.98R
$$




USA.gov is the U.S. government's official web portal to all federal, state and local government web resources and services.